Overview Statistics Trail Chart Weather Telemetry Raw packets
 

This is the latest recevied weather packets stored in our database for station/object NT9G. If no packets are shown the sender has not sent any weather packets the latest 10 day(s).

<< 1 2 3 4 5 6 7 >>
Time Temp. Humidity Pressure Rain* Wind** Luminosity Snow
1777827470 16.67° C 41% 1013.9 hPa 0 mm - - -
1777827170 16.67° C 41% 1013.9 hPa 0 mm - - -
1777826870 16.67° C 40% 1014.3 hPa 0 mm - - -
1777826569 17.22° C 40% 1014.1 hPa 0 mm - - -
1777826269 17.22° C 39% 1014 hPa 0 mm - - -
1777825969 17.22° C 41% 1013.9 hPa 0 mm - - -
1777825669 16.67° C 45% 1013.9 hPa 0 mm - - -
1777825368 15.56° C 47% 1013.9 hPa 0 mm - - -
1777825068 15° C 47% 1014.2 hPa 0 mm - - -
1777824768 15° C 46% 1014.4 hPa 0 mm - - -
1777824467 15° C 46% 1014.6 hPa 0 mm - - -
1777824167 15° C 45% 1014.6 hPa 0 mm - - -
1777823867 15° C 45% 1014.7 hPa 0 mm - - -
1777823567 15° C 43% 1014.8 hPa 0 mm - - -
1777823266 15.56° C 46% 1014.9 hPa 0 mm - - -
1777822966 15.56° C 46% 1014.9 hPa 0 mm - - -
1777822666 15° C 46% 1015 hPa 0 mm - - -
1777822365 15° C 48% 1015.1 hPa 0 mm - - -
1777822065 14.44° C 48% 1015.2 hPa 0 mm - - -
1777821765 14.44° C 48% 1015.4 hPa 0 mm - - -
1777821465 14.44° C 48% 1015.5 hPa 0 mm - - -
1777821164 14.44° C 50% 1015.6 hPa 0 mm - - -
1777820864 14.44° C 50% 1015.7 hPa 0 mm - - -
1777820564 13.89° C 52% 1015.7 hPa 0 mm - - -
1777820263 13.33° C 53% 1015.8 hPa 0 mm - - -

* Rain since midnight (hover to see other rain measurements)
** Current wind speed in m/s (hover to see current wind gust speed)